Weather History for KHNZ - July, 2013

Change the Weather History Date:

Thursday, July 4, 2013

  Actual Average (KTDF) Record (KTDF)
Temperature  
Mean Temperature 79 °F -  
Max Temperature 86 °F 87 °F 102 °F (1966)
Min Temperature 72 °F 63 °F 55 °F (2010)
Cooling Degree Days 14    
Growing Degree Days 29 (Base 50)    
Moisture  
Dew Point 70 °F    
Average Humidity 77    
Maximum Humidity 94    
Minimum Humidity 48    
Precipitation  
Precipitation 0.00 in - - ()
Sea Level Pressure  
Sea Level Pressure 30.26 in    
Wind  
Wind Speed 6 mph (SSE)    
Max Wind Speed 10 mph    
Max Gust Speed 17 mph    
Visibility 9 miles    
Events      
Averages and records for this station are not official NWS values.
T = Trace of Precipitation, MM = Missing Value Source: NWS Daily Summary

Daily Weather History Graph

Daily Weather History Graph

Search for Another Location

Airport or City:

Trip Planner

Search our weather history database for the weather conditions in past years. The results will help you decide how hot, cold, wet, or windy it might be!

Date:

Astronomy

Jul. 04, 2013 Rise Set
Actual Time 6:01 AM EDT 8:35 PM EDT
Civil Twilight 5:31 AM EDT 9:05 PM EDT
Nautical Twilight 4:53 AM EDT 9:43 PM EDT
Astronomical Twilight 4:12 AM EDT 10:24 PM EDT
Moon 3:14 AM EDT (7/4) 5:40 PM EDT (7/4)
Length of Visible Light 15h 34m
Length of Day
14h 33m
Waning Crescent, 11% of the Moon is Illuminated
Jul 4
Waning Crescent
Jul 8
New
Jul 15
First Quarter
Jul 22
Full
Jul 29
Last Quarter

Hourly Weather History & Observations

Time (EDT) Temp. Heat Index Dew Point Humidity Pressure Visibility Wind Dir Wind Speed Gust Speed Precip Events Conditions
12:15 AM 72.9 °F - 70.9 °F 93% 30.27 in 10.0 mi South 5.8 mph - N/A   Scattered Clouds
12:35 AM 72.7 °F - 70.7 °F 93% 30.27 in 10.0 mi South 5.8 mph - N/A   Clear
12:55 AM 72.5 °F - 70.7 °F 94% 30.27 in 10.0 mi South 4.6 mph - N/A   Scattered Clouds
1:15 AM 72.5 °F - 70.7 °F 94% 30.27 in 10.0 mi SSE 3.5 mph - N/A   Mostly Cloudy
1:35 AM 72.5 °F - 70.7 °F 94% 30.27 in 10.0 mi South 4.6 mph - N/A   Scattered Clouds
1:55 AM 72.5 °F - 70.7 °F 94% 30.27 in 10.0 mi South 4.6 mph - N/A   Overcast
2:15 AM 72.5 °F - 70.7 °F 94% 30.27 in 10.0 mi SSE 4.6 mph - N/A   Overcast
2:35 AM 72.7 °F - 70.9 °F 94% 30.26 in 7.0 mi South 5.8 mph - N/A   Overcast
2:55 AM 73.0 °F - 71.2 °F 94% 30.26 in 7.0 mi South 6.9 mph - N/A   Overcast
3:15 AM 73.0 °F - 71.2 °F 94% 30.26 in 7.0 mi South 9.2 mph - N/A   Overcast
3:35 AM 73.0 °F - 71.1 °F 93% 30.26 in 7.0 mi South 4.6 mph - N/A   Overcast
3:55 AM 73.4 °F - 71.2 °F 93% 30.26 in 7.0 mi South 4.6 mph - N/A   Overcast
4:15 AM 73.2 °F - 71.2 °F 93% 30.27 in 7.0 mi South 3.5 mph - N/A   Overcast
4:35 AM 73.0 °F - 71.1 °F 93% 30.27 in 7.0 mi South 4.6 mph - N/A   Overcast
4:55 AM 73.0 °F - 71.1 °F 93% 30.27 in 7.0 mi South 4.6 mph - N/A   Mostly Cloudy
5:15 AM 72.5 °F - 70.7 °F 94% 30.27 in 7.0 mi SSE 5.8 mph - N/A   Scattered Clouds
5:35 AM 72.5 °F - 70.7 °F 94% 30.27 in 7.0 mi South 3.5 mph - N/A   Scattered Clouds
5:55 AM 72.5 °F - 70.7 °F 94% 30.27 in 5.0 mi South 3.5 mph - N/A   Mostly Cloudy
6:15 AM 72.3 °F - 70.5 °F 94% 30.27 in 4.0 mi South 3.5 mph - N/A   Scattered Clouds
6:35 AM 72.5 °F - 70.7 °F 94% 30.28 in 4.0 mi South 4.6 mph - N/A   Clear
6:55 AM 72.5 °F - 70.7 °F 94% 30.28 in 4.0 mi SSE 4.6 mph - N/A   Scattered Clouds
7:15 AM 72.9 °F - 70.9 °F 93% 30.29 in 4.0 mi SSE 4.6 mph - N/A   Scattered Clouds
7:35 AM 73.8 °F - 71.6 °F 93% 30.29 in 5.0 mi South 4.6 mph - N/A   Mostly Cloudy
7:55 AM 74.5 °F - 72.0 °F 92% 30.30 in 5.0 mi South 5.8 mph - N/A   Mostly Cloudy
8:15 AM 74.7 °F - 71.8 °F 91% 30.30 in 7.0 mi South 5.8 mph - N/A   Overcast
8:35 AM 75.2 °F - 72.0 °F 90% 30.31 in 7.0 mi South 5.8 mph - N/A   Overcast
8:55 AM 75.9 °F - 72.1 °F 88% 30.31 in 10.0 mi South 5.8 mph - N/A   Overcast
9:15 AM 76.3 °F - 71.8 °F 86% 30.31 in 10.0 mi South 5.8 mph - N/A   Mostly Cloudy
9:35 AM 77.9 °F - 71.2 °F 80% 30.30 in 10.0 mi SSE 9.2 mph - N/A   Scattered Clouds
9:55 AM 78.6 °F - 71.1 °F 78% 30.30 in 10.0 mi South 9.2 mph - N/A   Scattered Clouds
10:15 AM 79.9 °F - 71.4 °F 75% 30.30 in 10.0 mi SW 6.9 mph - N/A   Scattered Clouds
10:35 AM 79.2 °F - 70.5 °F 75% 30.30 in 10.0 mi South 6.9 mph - N/A   Scattered Clouds
10:55 AM 81.3 °F 85.0 °F 70.3 °F 69% 30.29 in 10.0 mi South 5.8 mph - N/A   Mostly Cloudy
11:15 AM 82.0 °F 85.7 °F 69.8 °F 66% 30.29 in 10.0 mi SSE 6.9 mph - N/A   Scattered Clouds
11:35 AM 82.8 °F 86.9 °F 70.3 °F 66% 30.29 in 10.0 mi SE 8.1 mph - N/A   Scattered Clouds
11:55 AM 82.2 °F 85.8 °F 69.4 °F 65% 30.29 in 10.0 mi South 8.1 mph - N/A   Scattered Clouds
12:15 PM 81.3 °F 84.6 °F 69.4 °F 67% 30.29 in 10.0 mi South 5.8 mph - N/A   Scattered Clouds
12:35 PM 83.1 °F 87.3 °F 70.3 °F 65% 30.29 in 10.0 mi South 5.8 mph - N/A   Scattered Clouds
12:55 PM 84.0 °F 88.4 °F 70.0 °F 63% 30.29 in 10.0 mi South 8.1 mph - N/A   Scattered Clouds
1:15 PM 83.5 °F 87.2 °F 69.1 °F 62% 30.28 in 10.0 mi South 6.9 mph - N/A   Mostly Cloudy
1:35 PM 84.0 °F 88.4 °F 70.2 °F 63% 30.27 in 10.0 mi South 8.1 mph - N/A   Mostly Cloudy
1:55 PM 83.8 °F 87.8 °F 69.4 °F 62% 30.27 in 10.0 mi SE 8.1 mph - N/A   Mostly Cloudy
2:15 PM 84.9 °F 89.1 °F 69.6 °F 60% 30.26 in 10.0 mi SSE 9.2 mph - N/A   Mostly Cloudy
2:35 PM 84.2 °F 87.9 °F 69.1 °F 60% 30.26 in 10.0 mi SSE 10.4 mph - N/A   Mostly Cloudy
2:55 PM 84.6 °F 88.5 °F 69.3 °F 60% 30.25 in 10.0 mi SSE 8.1 mph - N/A   Mostly Cloudy
3:15 PM 85.5 °F 89.1 °F 68.7 °F 57% 30.24 in 10.0 mi SSE 8.1 mph - N/A   Clear
3:35 PM 84.9 °F 87.9 °F 67.6 °F 56% 30.24 in 10.0 mi SSE 10.4 mph - N/A   Scattered Clouds
3:55 PM 86.0 °F 89.4 °F 68.4 °F 55% 30.23 in 10.0 mi SE 10.4 mph - N/A   Scattered Clouds
4:15 PM 86.4 °F 88.7 °F 66.2 °F 51% 30.24 in 10.0 mi SSE 9.2 mph - N/A   Clear
4:35 PM 86.4 °F 87.8 °F 64.6 °F 48% 30.23 in 10.0 mi SSE 9.2 mph - N/A   Clear
4:55 PM 86.5 °F 88.1 °F 64.9 °F 48% 30.22 in 10.0 mi SSE 9.2 mph - N/A   Clear
5:15 PM 86.5 °F 89.0 °F 66.2 °F 51% 30.22 in 10.0 mi SE 6.9 mph - N/A   Clear
5:35 PM 85.5 °F 88.2 °F 66.9 °F 54% 30.22 in 10.0 mi SSE 10.4 mph - N/A   Scattered Clouds
5:55 PM 84.6 °F 87.6 °F 68.0 °F 57% 30.22 in 10.0 mi SE 8.1 mph 17.3 mph N/A   Scattered Clouds
6:15 PM 83.5 °F 86.0 °F 66.6 °F 57% 30.22 in 10.0 mi SE 8.1 mph 17.3 mph N/A   Clear
6:35 PM 83.3 °F 86.2 °F 67.6 °F 59% 30.22 in 10.0 mi SE 5.8 mph - N/A   Clear
6:55 PM 82.2 °F 85.5 °F 68.9 °F 64% 30.22 in 10.0 mi SSE 3.5 mph - N/A   Clear
7:15 PM 81.3 °F 84.6 °F 69.4 °F 67% 30.22 in 10.0 mi SE 8.1 mph - N/A   Clear
7:35 PM 80.4 °F 83.6 °F 70.0 °F 70% 30.23 in 10.0 mi Calm Calm - N/A   Scattered Clouds
7:55 PM 79.9 °F - 70.3 °F 73% 30.23 in 10.0 mi Calm Calm - N/A   Scattered Clouds
8:15 PM 79.3 °F - 70.7 °F 75% 30.24 in 10.0 mi Calm Calm - N/A   Scattered Clouds
8:35 PM 78.8 °F - 70.9 °F 77% 30.24 in 10.0 mi Calm Calm - N/A   Mostly Cloudy
8:55 PM 78.3 °F - 70.9 °F 78% 30.24 in 10.0 mi SSE 4.6 mph - N/A   Scattered Clouds
9:15 PM 77.9 °F - 70.7 °F 78% 30.24 in 10.0 mi SSE 5.8 mph - N/A   Clear
9:35 PM 77.2 °F - 70.3 °F 79% 30.25 in 10.0 mi SSE 5.8 mph - N/A   Clear
9:55 PM 77.2 °F - 69.3 °F 76% 30.26 in 10.0 mi South 5.8 mph - N/A   Clear
10:15 PM 76.6 °F - 69.1 °F 77% 30.26 in 10.0 mi South 4.6 mph - N/A   Clear
10:35 PM 76.1 °F - 68.5 °F 77% 30.27 in 10.0 mi South 5.8 mph - N/A   Clear
10:55 PM 75.7 °F - 68.0 °F 77% 30.27 in 10.0 mi South 5.8 mph - N/A   Clear
11:15 PM 75.2 °F - 67.5 °F 77% 30.27 in 10.0 mi South 5.8 mph - N/A   Clear
11:35 PM 74.7 °F - 67.5 °F 78% 30.27 in 10.0 mi South 6.9 mph - N/A   Clear
11:55 PM 74.3 °F - 67.3 °F 79% 30.27 in 10.0 mi SSE 5.8 mph - N/A   Clear